Time,TemperatureF,DewpointF,PressureIn,WindDirection,WindDirectionDegrees,WindSpeedMPH,WindSpeedGustMPH,Humidity,HourlyPrecipIn,Conditions,Clouds,dailyrainin,SolarRadiationWatts/m^2,SoftwareType,DateUTC
2013-02-24 00:00:00,25.3,21.7,29.85,SSE,165,0.0,8.0,86,0.00,,,0.00,0,Wunderground v.1.15,2013-02-24 06:00:00,
2013-02-24 00:10:00,25.2,21.9,29.85,SSE,165,0.0,8.0,87,0.00,,,0.00,0,Wunderground v.1.15,2013-02-24 06:10:00,
2013-02-24 00:20:00,24.9,21.6,29.85,SSE,165,0.0,8.0,87,0.00,,,0.00,0,Wunderground v.1.15,2013-02-24 06:20:00,
2013-02-24 00:25:00,24.7,21.4,29.85,SSE,165,0.0,8.0,87,0.00,,,0.00,0,Wunderground v.1.15,2013-02-24 06:25:00,
2013-02-24 00:30:00,24.6,21.3,29.85,SSE,165,0.0,8.0,87,0.00,,,0.00,0,Wunderground v.1.15,2013-02-24 06:30:00,
2013-02-24 00:40:00,24.2,20.9,29.85,SSE,165,0.0,8.0,87,0.00,,,0.00,0,Wunderground v.1.15,2013-02-24 06:40:00,
2013-02-24 00:50:00,24.0,20.7,29.86,SSE,165,0.0,8.0,87,0.00,,,0.00,0,Wunderground v.1.15,2013-02-24 06:50:00,
2013-02-24 00:55:00,23.8,20.5,29.86,SSE,165,0.0,8.0,87,0.00,,,0.00,0,Wunderground v.1.15,2013-02-24 06:55:00,
2013-02-24 01:05:00,23.4,20.1,29.86,SSE,165,0.0,8.0,87,0.00,,,0.00,0,Wunderground v.1.15,2013-02-24 07:05:00,
2013-02-24 01:15:00,23.0,19.7,29.86,SSE,165,0.0,8.0,87,0.00,,,0.00,0,Wunderground v.1.15,2013-02-24 07:15:00,
2013-02-24 01:25:00,22.8,19.8,29.86,SSE,165,0.0,8.0,88,0.00,,,0.00,0,Wunderground v.1.15,2013-02-24 07:25:00,
2013-02-24 01:35:00,22.9,19.9,29.87,SSE,165,0.0,8.0,88,0.00,,,0.00,0,Wunderground v.1.15,2013-02-24 07:35:00,
2013-02-24 01:40:00,22.9,19.9,29.87,SSE,165,0.0,8.0,88,0.00,,,0.00,0,Wunderground v.1.15,2013-02-24 07:40:00,
2013-02-24 01:45:00,22.9,19.9,29.87,SSE,165,0.0,8.0,88,0.00,,,0.00,0,Wunderground v.1.15,2013-02-24 07:45:00,
2013-02-24 01:50:00,22.8,19.8,29.87,SSE,165,0.0,8.0,88,0.00,,,0.00,0,Wunderground v.1.15,2013-02-24 07:50:00,
2013-02-24 02:00:00,22.4,19.4,29.87,SSE,165,0.0,8.0,88,0.00,,,0.00,0,Wunderground v.1.15,2013-02-24 08:00:00,
2013-02-24 02:10:00,22.3,19.6,29.87,SSE,165,0.0,8.0,89,0.00,,,0.00,0,Wunderground v.1.15,2013-02-24 08:10:00,
2013-02-24 02:15:00,22.2,19.5,29.87,SSE,165,0.0,8.0,89,0.00,,,0.00,0,Wunderground v.1.15,2013-02-24 08:15:00,
2013-02-24 02:25:00,22.2,19.5,29.87,SSE,165,0.0,8.0,89,0.00,,,0.00,0,Wunderground v.1.15,2013-02-24 08:25:00,
2013-02-24 02:35:00,22.0,19.3,29.87,SSE,165,0.0,8.0,89,0.00,,,0.00,0,Wunderground v.1.15,2013-02-24 08:35:00,
2013-02-24 02:40:00,22.0,19.3,29.87,SSE,165,0.0,8.0,89,0.00,,,0.00,0,Wunderground v.1.15,2013-02-24 08:40:00,
2013-02-24 02:50:00,22.0,19.3,29.88,SSE,165,0.0,8.0,89,0.00,,,0.00,0,Wunderground v.1.15,2013-02-24 08:50:00,
2013-02-24 03:00:00,22.0,19.3,29.88,SSE,165,0.0,8.0,89,0.00,,,0.00,0,Wunderground v.1.15,2013-02-24 09:00:00,
2013-02-24 03:05:00,21.9,19.2,29.88,SSE,165,0.0,8.0,89,0.00,,,0.00,0,Wunderground v.1.15,2013-02-24 09:05:00,
2013-02-24 03:15:00,21.5,18.8,29.88,SSE,165,0.0,8.0,89,0.00,,,0.00,0,Wunderground v.1.15,2013-02-24 09:15:00,
2013-02-24 03:20:00,21.3,18.6,29.88,SSE,165,0.0,8.0,89,0.00,,,0.00,0,Wunderground v.1.15,2013-02-24 09:20:00,
2013-02-24 03:30:00,21.0,18.3,29.87,SSE,165,0.0,8.0,89,0.00,,,0.00,0,Wunderground v.1.15,2013-02-24 09:30:00,
2013-02-24 03:40:00,20.7,18.0,29.87,SSE,165,0.0,8.0,89,0.00,,,0.00,0,Wunderground v.1.15,2013-02-24 09:40:00,
2013-02-24 03:45:00,20.7,18.0,29.87,SSE,165,0.0,8.0,89,0.00,,,0.00,0,Wunderground v.1.15,2013-02-24 09:45:00,
2013-02-24 03:50:00,20.6,17.9,29.87,SSE,165,0.0,8.0,89,0.00,,,0.00,0,Wunderground v.1.15,2013-02-24 09:50:00,
2013-02-24 04:00:00,20.5,18.0,29.87,SSE,165,0.0,8.0,90,0.00,,,0.00,0,Wunderground v.1.15,2013-02-24 10:00:00,
2013-02-24 04:05:00,20.5,18.0,29.87,SSE,165,0.0,8.0,90,0.00,,,0.00,0,Wunderground v.1.15,2013-02-24 10:05:00,
2013-02-24 04:15:00,20.6,18.1,29.87,SSE,165,0.0,8.0,90,0.00,,,0.00,0,Wunderground v.1.15,2013-02-24 10:15:00,
2013-02-24 04:25:00,20.6,18.1,29.87,SSE,165,0.0,8.0,90,0.00,,,0.00,0,Wunderground v.1.15,2013-02-24 10:25:00,
2013-02-24 04:30:00,20.7,18.2,29.88,SSE,165,0.0,8.0,90,0.00,,,0.00,0,Wunderground v.1.15,2013-02-24 10:30:00,
2013-02-24 04:40:00,20.7,18.2,29.88,SSE,165,0.0,8.0,90,0.00,,,0.00,0,Wunderground v.1.15,2013-02-24 10:40:00,
2013-02-24 04:50:00,20.7,18.2,29.87,SSE,165,0.0,8.0,90,0.00,,,0.00,0,Wunderground v.1.15,2013-02-24 10:50:00,
2013-02-24 04:55:00,20.6,18.1,29.87,SSE,165,0.0,8.0,90,0.00,,,0.00,0,Wunderground v.1.15,2013-02-24 10:55:00,
2013-02-24 05:05:00,20.5,18.0,29.88,SSE,165,0.0,8.0,90,0.00,,,0.00,0,Wunderground v.1.15,2013-02-24 11:05:00,
2013-02-24 05:15:00,20.4,17.9,29.89,SSE,165,0.0,8.0,90,0.00,,,0.00,0,Wunderground v.1.15,2013-02-24 11:15:00,
2013-02-24 05:25:00,20.2,17.7,29.89,SSE,165,0.0,8.0,90,0.00,,,0.00,0,Wunderground v.1.15,2013-02-24 11:25:00,
2013-02-24 05:35:00,20.0,17.5,29.89,SSE,165,0.0,8.0,90,0.00,,,0.00,0,Wunderground v.1.15,2013-02-24 11:35:00,
2013-02-24 05:40:00,19.9,17.4,29.89,SSE,165,0.0,8.0,90,0.00,,,0.00,0,Wunderground v.1.15,2013-02-24 11:40:00,
2013-02-24 05:50:00,19.7,17.2,29.90,SSE,165,0.0,8.0,90,0.00,,,0.00,0,Wunderground v.1.15,2013-02-24 11:50:00,
2013-02-24 06:00:00,19.6,17.1,29.90,SSE,165,0.0,8.0,90,0.00,,,0.00,0,Wunderground v.1.15,2013-02-24 12:00:00,
2013-02-24 06:10:00,19.9,17.7,29.90,SSE,165,1.0,1.0,91,0.00,,,0.00,0,Wunderground v.1.15,2013-02-24 12:10:00,
2013-02-24 06:20:00,20.2,18.0,29.90,SSE,165,1.0,1.0,91,0.00,,,0.00,0,Wunderground v.1.15,2013-02-24 12:20:00,
2013-02-24 06:35:00,20.7,18.5,29.90,SSE,165,1.0,1.0,91,0.00,,,0.00,0,Wunderground v.1.15,2013-02-24 12:35:00,
2013-02-24 06:45:00,21.0,18.8,29.90,SSE,165,1.0,1.0,91,0.00,,,0.00,0,Wunderground v.1.15,2013-02-24 12:45:00,
2013-02-24 06:55:00,21.3,19.1,29.90,SSE,165,2.0,3.0,91,0.00,,,0.00,0,Wunderground v.1.15,2013-02-24 12:55:00,
2013-02-24 07:05:00,21.5,19.3,29.90,SSE,165,2.0,3.0,91,0.00,,,0.00,0,Wunderground v.1.15,2013-02-24 13:05:00,
2013-02-24 07:15:00,21.7,19.5,29.90,SSE,165,2.0,2.0,91,0.00,,,0.00,5,Wunderground v.1.15,2013-02-24 13:15:00,
2013-02-24 07:20:00,21.8,19.6,29.90,SSE,165,2.0,2.0,91,0.00,,,0.00,7,Wunderground v.1.15,2013-02-24 13:20:00,
2013-02-24 07:30:00,21.9,19.7,29.90,SSE,165,2.0,2.0,91,0.00,,,0.00,12,Wunderground v.1.15,2013-02-24 13:30:00,
2013-02-24 07:35:00,22.1,19.9,29.90,SSE,165,2.0,2.0,91,0.00,,,0.00,14,Wunderground v.1.15,2013-02-24 13:35:00,
2013-02-24 07:45:00,22.3,20.1,29.91,South,172,1.0,2.0,91,0.00,,,0.00,21,Wunderground v.1.15,2013-02-24 13:45:00,
2013-02-24 07:55:00,22.6,20.1,29.91,South,172,1.0,1.0,90,0.00,,,0.00,32,Wunderground v.1.15,2013-02-24 13:55:00,
2013-02-24 08:05:00,22.7,20.2,29.92,South,172,0.0,0.0,90,0.00,,,0.00,39,Wunderground v.1.15,2013-02-24 14:05:00,
2013-02-24 08:15:00,23.0,20.5,29.92,South,172,0.0,2.0,90,0.00,,,0.00,58,Wunderground v.1.15,2013-02-24 14:15:00,
2013-02-24 08:20:00,23.1,20.6,29.92,South,172,0.0,0.0,90,0.00,,,0.00,65,Wunderground v.1.15,2013-02-24 14:20:00,
2013-02-24 08:30:00,23.4,20.9,29.93,South,172,0.0,0.0,90,0.00,,,0.00,74,Wunderground v.1.15,2013-02-24 14:30:00,
2013-02-24 08:40:00,23.7,21.2,29.93,South,172,1.0,1.0,90,0.00,,,0.00,81,Wunderground v.1.15,2013-02-24 14:40:00,
2013-02-24 08:50:00,24.1,21.3,29.93,South,172,0.0,0.0,89,0.00,,,0.00,104,Wunderground v.1.15,2013-02-24 14:50:00,
2013-02-24 08:55:00,24.3,21.5,29.93,South,172,0.0,2.0,89,0.00,,,0.00,114,Wunderground v.1.15,2013-02-24 14:55:00,
2013-02-24 09:05:00,24.9,22.1,29.93,South,172,0.0,0.0,89,0.00,,,0.00,146,Wunderground v.1.15,2013-02-24 15:05:00,
2013-02-24 09:15:00,25.2,22.4,29.93,South,172,0.0,0.0,89,0.00,,,0.00,172,Wunderground v.1.15,2013-02-24 15:15:00,
2013-02-24 09:25:00,25.8,22.7,29.93,South,172,0.0,0.0,88,0.00,,,0.00,192,Wunderground v.1.15,2013-02-24 15:25:00,
2013-02-24 09:30:00,25.9,22.6,29.94,South,172,0.0,0.0,87,0.00,,,0.00,171,Wunderground v.1.15,2013-02-24 15:30:00,
2013-02-24 09:40:00,26.2,22.6,29.94,South,172,0.0,0.0,86,0.00,,,0.00,183,Wunderground v.1.15,2013-02-24 15:40:00,
2013-02-24 09:50:00,26.5,22.6,29.94,South,172,1.0,2.0,85,0.00,,,0.00,174,Wunderground v.1.15,2013-02-24 15:50:00,
2013-02-24 10:00:00,26.8,22.9,29.95,South,172,2.0,3.0,85,0.00,,,0.00,171,Wunderground v.1.15,2013-02-24 16:00:00,
2013-02-24 10:05:00,27.1,22.9,29.95,South,172,1.0,3.0,84,0.00,,,0.00,185,Wunderground v.1.15,2013-02-24 16:05:00,
2013-02-24 10:15:00,27.7,23.2,29.95,South,172,0.0,0.0,83,0.00,,,0.00,190,Wunderground v.1.15,2013-02-24 16:15:00,
2013-02-24 10:25:00,28.5,24.0,29.95,South,172,1.0,1.0,83,0.00,,,0.00,214,Wunderground v.1.15,2013-02-24 16:25:00,
2013-02-24 10:35:00,28.6,23.8,29.95,South,172,0.0,0.0,82,0.00,,,0.00,234,Wunderground v.1.15,2013-02-24 16:35:00,
2013-02-24 10:45:00,28.6,23.8,29.96,South,172,1.0,2.0,82,0.00,,,0.00,309,Wunderground v.1.15,2013-02-24 16:45:00,
2013-02-24 10:55:00,29.5,24.7,29.96,South,172,0.0,1.0,82,0.00,,,0.00,436,Wunderground v.1.15,2013-02-24 16:55:00,
2013-02-24 11:05:00,30.7,25.3,29.96,South,172,0.0,1.0,80,0.00,,,0.00,439,Wunderground v.1.15,2013-02-24 17:05:00,
2013-02-24 11:15:00,31.6,25.8,29.95,South,172,0.0,0.0,79,0.00,,,0.00,383,Wunderground v.1.15,2013-02-24 17:15:00,
2013-02-24 11:20:00,32.0,25.9,29.95,South,172,0.0,0.0,78,0.00,,,0.00,320,Wunderground v.1.15,2013-02-24 17:20:00,
2013-02-24 11:30:00,32.0,27.4,29.95,South,172,0.0,1.0,83,0.00,,,0.00,446,Wunderground v.1.15,2013-02-24 17:30:00,
2013-02-24 11:40:00,32.6,25.9,29.95,South,172,1.0,1.0,76,0.00,,,0.00,538,Wunderground v.1.15,2013-02-24 17:40:00,
2013-02-24 11:50:00,34.7,26.9,29.95,South,172,0.0,0.0,73,0.00,,,0.00,958,Wunderground v.1.15,2013-02-24 17:50:00,
2013-02-24 11:55:00,35.8,27.7,29.95,South,172,1.0,1.0,72,0.00,,,0.00,610,Wunderground v.1.15,2013-02-24 17:55:00,
2013-02-24 12:05:00,36.7,27.5,29.95,South,172,1.0,1.0,69,0.00,,,0.00,679,Wunderground v.1.15,2013-02-24 18:05:00,
2013-02-24 12:10:00,37.4,27.4,29.95,South,184,1.0,2.0,67,0.00,,,0.00,779,Wunderground v.1.15,2013-02-24 18:10:00,
2013-02-24 12:20:00,37.4,27.1,29.95,South,184,0.0,0.0,66,0.00,,,0.00,450,Wunderground v.1.15,2013-02-24 18:20:00,
2013-02-24 12:30:00,36.4,26.8,29.95,South,183,1.0,1.0,68,0.00,,,0.00,350,Wunderground v.1.15,2013-02-24 18:30:00,
2013-02-24 12:35:00,35.9,26.7,29.95,South,183,1.0,2.0,69,0.00,,,0.00,311,Wunderground v.1.15,2013-02-24 18:35:00,
2013-02-24 12:45:00,36.2,27.7,29.95,South,182,1.0,2.0,71,0.00,,,0.00,348,Wunderground v.1.15,2013-02-24 18:45:00,
2013-02-24 12:50:00,36.8,27.9,29.95,South,182,0.0,0.0,70,0.00,,,0.00,436,Wunderground v.1.15,2013-02-24 18:50:00,
2013-02-24 13:00:00,37.7,28.1,29.94,SE,137,0.0,3.0,68,0.00,,,0.00,483,Wunderground v.1.15,2013-02-24 19:00:00,
2013-02-24 13:10:00,37.9,27.5,29.94,SSE,147,1.0,3.0,66,0.00,,,0.00,844,Wunderground v.1.15,2013-02-24 19:10:00,
2013-02-24 13:20:00,38.2,27.8,29.93,SE,144,1.0,1.0,66,0.00,,,0.00,650,Wunderground v.1.15,2013-02-24 19:20:00,
2013-02-24 13:30:00,39.1,27.6,29.92,SE,142,1.0,2.0,63,0.00,,,0.00,629,Wunderground v.1.15,2013-02-24 19:30:00,
2013-02-24 13:40:00,39.8,27.8,29.92,SE,142,0.0,0.0,62,0.00,,,0.00,508,Wunderground v.1.15,2013-02-24 19:40:00,
2013-02-24 13:50:00,39.8,28.6,29.92,SSE,150,0.0,0.0,64,0.00,,,0.00,689,Wunderground v.1.15,2013-02-24 19:50:00,
2013-02-24 14:00:00,39.1,27.2,29.91,SSE,150,2.0,3.0,62,0.00,,,0.00,578,Wunderground v.1.15,2013-02-24 20:00:00,
2013-02-24 14:10:00,39.9,28.3,29.91,SSE,150,0.0,0.0,63,0.00,,,0.00,561,Wunderground v.1.15,2013-02-24 20:10:00,
2013-02-24 14:20:00,40.1,28.5,29.91,SSE,150,1.0,1.0,63,0.00,,,0.00,582,Wunderground v.1.15,2013-02-24 20:20:00,
2013-02-24 14:25:00,39.5,28.3,29.91,SSE,149,1.0,1.0,64,0.00,,,0.00,218,Wunderground v.1.15,2013-02-24 20:25:00,
2013-02-24 14:35:00,40.2,28.6,29.91,SSE,149,0.0,1.0,63,0.00,,,0.00,411,Wunderground v.1.15,2013-02-24 20:35:00,
2013-02-24 14:45:00,40.6,29.0,29.90,SSE,160,0.0,3.0,63,0.00,,,0.00,605,Wunderground v.1.15,2013-02-24 20:45:00,
2013-02-24 14:55:00,40.9,27.2,29.90,SSE,161,1.0,1.0,58,0.00,,,0.00,394,Wunderground v.1.15,2013-02-24 20:55:00,
2013-02-24 15:05:00,40.2,27.8,29.90,SSE,161,0.0,1.0,61,0.00,,,0.00,360,Wunderground v.1.15,2013-02-24 21:05:00,
2013-02-24 15:15:00,40.6,27.8,29.90,SSE,161,0.0,1.0,60,0.00,,,0.00,563,Wunderground v.1.15,2013-02-24 21:15:00,
2013-02-24 15:20:00,41.0,28.2,29.90,SSE,161,0.0,0.0,60,0.00,,,0.00,397,Wunderground v.1.15,2013-02-24 21:20:00,
2013-02-24 15:25:00,40.6,28.2,29.90,SSE,161,0.0,0.0,61,0.00,,,0.00,313,Wunderground v.1.15,2013-02-24 21:25:00,
2013-02-24 15:35:00,40.6,27.8,29.90,SSE,161,0.0,0.0,60,0.00,,,0.00,318,Wunderground v.1.15,2013-02-24 21:35:00,
2013-02-24 15:45:00,40.5,27.7,29.89,SSE,161,0.0,0.0,60,0.00,,,0.00,243,Wunderground v.1.15,2013-02-24 21:45:00,
2013-02-24 15:55:00,40.6,27.8,29.89,SSE,161,0.0,0.0,60,0.00,,,0.00,309,Wunderground v.1.15,2013-02-24 21:55:00,
2013-02-24 16:05:00,40.3,27.1,29.90,SSE,161,0.0,0.0,59,0.00,,,0.00,236,Wunderground v.1.15,2013-02-24 22:05:00,
2013-02-24 16:10:00,40.3,26.7,29.90,SSE,161,0.0,0.0,58,0.00,,,0.00,211,Wunderground v.1.15,2013-02-24 22:10:00,
2013-02-24 16:20:00,40.9,27.2,29.90,SSE,161,0.0,0.0,58,0.00,,,0.00,193,Wunderground v.1.15,2013-02-24 22:20:00,
2013-02-24 16:30:00,41.0,26.5,29.90,SSE,161,0.0,0.0,56,0.00,,,0.00,185,Wunderground v.1.15,2013-02-24 22:30:00,
2013-02-24 16:40:00,41.5,27.0,29.90,SSE,161,0.0,0.0,56,0.00,,,0.00,230,Wunderground v.1.15,2013-02-24 22:40:00,
2013-02-24 16:50:00,41.9,27.3,29.90,SSE,161,0.0,0.0,56,0.00,,,0.00,241,Wunderground v.1.15,2013-02-24 22:50:00,
2013-02-24 17:00:00,41.0,26.9,29.92,SSE,161,0.0,0.0,57,0.00,,,0.00,148,Wunderground v.1.15,2013-02-24 23:00:00,
2013-02-24 17:10:00,40.5,27.7,29.92,SSE,161,0.0,3.0,60,0.00,,,0.00,107,Wunderground v.1.15,2013-02-24 23:10:00,
2013-02-24 17:20:00,40.2,28.2,29.92,SSE,161,1.0,1.0,62,0.00,,,0.00,93,Wunderground v.1.15,2013-02-24 23:20:00,
2013-02-24 17:30:00,40.2,28.6,29.92,SSE,161,0.0,0.0,63,0.00,,,0.00,56,Wunderground v.1.15,2013-02-24 23:30:00,
2013-02-24 17:35:00,40.0,28.8,29.92,SSE,161,0.0,0.0,64,0.00,,,0.00,37,Wunderground v.1.15,2013-02-24 23:35:00,
2013-02-24 17:45:00,39.7,28.9,29.92,SSE,161,0.0,0.0,65,0.00,,,0.00,14,Wunderground v.1.15,2013-02-24 23:45:00,
2013-02-24 17:55:00,39.3,28.9,29.92,SSE,161,0.0,0.0,66,0.00,,,0.00,5,Wunderground v.1.15,2013-02-24 23:55:00,
2013-02-24 18:00:00,39.1,29.1,29.92,SSE,161,0.0,0.0,67,0.00,,,0.00,0,Wunderground v.1.15,2013-02-25 00:00:00,
2013-02-24 18:10:00,38.8,29.1,29.92,SSE,161,0.0,0.0,68,0.00,,,0.00,0,Wunderground v.1.15,2013-02-25 00:10:00,
2013-02-24 18:20:00,38.5,28.9,29.93,SSE,161,0.0,0.0,68,0.00,,,0.00,0,Wunderground v.1.15,2013-02-25 00:20:00,
2013-02-24 18:30:00,38.1,28.8,29.94,SSE,161,0.0,0.0,69,0.00,,,0.00,0,Wunderground v.1.15,2013-02-25 00:30:00,
2013-02-24 18:40:00,37.5,28.2,29.94,SSE,161,0.0,0.0,69,0.00,,,0.00,0,Wunderground v.1.15,2013-02-25 00:40:00,
2013-02-24 18:50:00,37.3,28.1,29.94,SSE,161,0.0,0.0,69,0.00,,,0.00,0,Wunderground v.1.15,2013-02-25 00:50:00,
2013-02-24 19:00:00,37.1,27.9,29.95,SSE,159,0.0,0.0,69,0.00,,,0.00,0,Wunderground v.1.15,2013-02-25 01:00:00,
2013-02-24 19:10:00,37.0,27.8,29.95,SSE,159,0.0,0.0,69,0.00,,,0.00,0,Wunderground v.1.15,2013-02-25 01:10:00,
2013-02-24 19:15:00,37.0,28.1,29.95,SSE,159,0.0,0.0,70,0.00,,,0.00,0,Wunderground v.1.15,2013-02-25 01:15:00,
2013-02-24 19:25:00,36.8,27.9,29.95,SSE,159,0.0,0.0,70,0.00,,,0.00,0,Wunderground v.1.15,2013-02-25 01:25:00,
2013-02-24 19:30:00,36.8,27.9,29.96,SSE,159,0.0,0.0,70,0.00,,,0.00,0,Wunderground v.1.15,2013-02-25 01:30:00,
2013-02-24 19:40:00,36.8,27.9,29.96,SSE,159,0.0,0.0,70,0.00,,,0.00,0,Wunderground v.1.15,2013-02-25 01:40:00,
2013-02-24 19:50:00,36.7,27.8,29.97,SSE,159,0.0,0.0,70,0.00,,,0.00,0,Wunderground v.1.15,2013-02-25 01:50:00,
2013-02-24 19:55:00,36.6,27.7,29.97,SSE,159,0.0,0.0,70,0.00,,,0.00,0,Wunderground v.1.15,2013-02-25 01:55:00,
2013-02-24 20:00:00,36.6,27.7,29.97,SSE,159,0.0,0.0,70,0.00,,,0.00,0,Wunderground v.1.15,2013-02-25 02:00:00,
2013-02-24 20:05:00,36.6,27.7,29.97,SSE,159,0.0,0.0,70,0.00,,,0.00,0,Wunderground v.1.15,2013-02-25 02:05:00,
2013-02-24 20:15:00,36.6,28.1,29.98,SSE,159,0.0,0.0,71,0.00,,,0.00,0,Wunderground v.1.15,2013-02-25 02:15:00,
2013-02-24 20:20:00,36.6,28.1,29.98,SSE,159,0.0,0.0,71,0.00,,,0.00,0,Wunderground v.1.15,2013-02-25 02:20:00,
2013-02-24 20:30:00,36.5,28.7,29.98,SSE,159,0.0,0.0,73,0.00,,,0.00,0,Wunderground v.1.15,2013-02-25 02:30:00,
2013-02-24 20:40:00,36.4,28.9,29.98,SSE,159,0.0,0.0,74,0.00,,,0.00,0,Wunderground v.1.15,2013-02-25 02:40:00,
2013-02-24 20:50:00,36.2,29.0,29.99,SSE,159,0.0,0.0,75,0.00,,,0.00,0,Wunderground v.1.15,2013-02-25 02:50:00,
2013-02-24 20:55:00,36.0,28.8,29.99,SSE,159,0.0,0.0,75,0.00,,,0.00,0,Wunderground v.1.15,2013-02-25 02:55:00,
2013-02-24 21:00:00,35.9,28.7,29.99,SSE,159,0.0,0.0,75,0.00,,,0.00,0,Wunderground v.1.15,2013-02-25 03:00:00,
2013-02-24 21:10:00,35.7,28.9,29.99,SSE,159,1.0,2.0,76,0.00,,,0.00,0,Wunderground v.1.15,2013-02-25 03:10:00,
2013-02-24 21:15:00,35.4,28.6,29.99,SSE,157,2.0,2.0,76,0.00,,,0.00,0,Wunderground v.1.15,2013-02-25 03:15:00,
2013-02-24 21:25:00,35.2,28.7,29.99,SSE,157,0.0,1.0,77,0.00,,,0.00,0,Wunderground v.1.15,2013-02-25 03:25:00,
2013-02-24 21:30:00,35.0,28.5,30.00,SSE,157,0.0,0.0,77,0.00,,,0.00,0,Wunderground v.1.15,2013-02-25 03:30:00,
2013-02-24 21:35:00,34.8,28.3,30.00,SSE,157,0.0,0.0,77,0.00,,,0.00,0,Wunderground v.1.15,2013-02-25 03:35:00,
2013-02-24 21:45:00,34.6,28.1,30.00,SSE,157,0.0,0.0,77,0.00,,,0.00,0,Wunderground v.1.15,2013-02-25 03:45:00,
2013-02-24 21:55:00,34.3,27.8,30.00,SSE,157,1.0,1.0,77,0.00,,,0.00,0,Wunderground v.1.15,2013-02-25 03:55:00,
2013-02-24 22:05:00,34.1,28.0,30.00,SSE,157,0.0,1.0,78,0.00,,,0.00,0,Wunderground v.1.15,2013-02-25 04:05:00,
2013-02-24 22:10:00,33.9,27.8,30.00,SSE,157,0.0,0.0,78,0.00,,,0.00,0,Wunderground v.1.15,2013-02-25 04:10:00,
2013-02-24 22:20:00,33.8,27.7,30.01,SSE,157,0.0,0.0,78,0.00,,,0.00,0,Wunderground v.1.15,2013-02-25 04:20:00,
2013-02-24 22:30:00,33.6,27.8,30.01,SSE,157,0.0,0.0,79,0.00,,,0.00,0,Wunderground v.1.15,2013-02-25 04:30:00,
2013-02-24 22:40:00,33.4,27.6,30.01,SSE,157,1.0,1.0,79,0.00,,,0.00,0,Wunderground v.1.15,2013-02-25 04:40:00,
2013-02-24 22:45:00,33.3,27.8,30.01,NNE,18,1.0,1.0,80,0.00,,,0.00,0,Wunderground v.1.15,2013-02-25 04:45:00,
2013-02-24 22:50:00,33.3,27.8,30.01,NNE,13,1.0,3.0,80,0.00,,,0.00,0,Wunderground v.1.15,2013-02-25 04:50:00,
2013-02-24 23:00:00,33.1,27.9,30.01,North,355,2.0,2.0,81,0.00,,,0.00,0,Wunderground v.1.15,2013-02-25 05:00:00,
2013-02-24 23:05:00,32.9,27.7,30.01,North,351,2.0,3.0,81,0.00,,,0.00,0,Wunderground v.1.15,2013-02-25 05:05:00,
2013-02-24 23:15:00,32.6,27.7,30.00,NNW,333,3.0,4.0,82,0.00,,,0.00,0,Wunderground v.1.15,2013-02-25 05:15:00,
2013-02-24 23:25:00,32.0,27.1,30.00,North,5,3.0,5.0,82,0.00,,,0.00,0,Wunderground v.1.15,2013-02-25 05:25:00,
2013-02-24 23:30:00,31.7,27.1,30.00,North,360,3.0,3.0,83,0.00,,,0.00,0,Wunderground v.1.15,2013-02-25 05:30:00,
2013-02-24 23:40:00,31.2,26.6,30.00,North,355,3.0,3.0,83,0.00,,,0.00,0,Wunderground v.1.15,2013-02-25 05:40:00,
2013-02-24 23:45:00,31.0,26.4,30.00,North,355,3.0,3.0,83,0.00,,,0.00,0,Wunderground v.1.15,2013-02-25 05:45:00,
2013-02-24 23:55:00,30.6,26.1,30.00,NNE,14,2.0,4.0,83,0.00,,,0.00,0,Wunderground v.1.15,2013-02-25 05:55:00,